Keahole Point, HI

10:57 PM HST on May 28, 2017 (GMT -1000)
Kona International At Keahole

Weather History for PHKO - March, 2012

Change the Weather History Date:

Tuesday, March 13, 2012

  Actual Average Record
Temperature  
Mean Temperature 76 °F -  
Max Temperature 82 °F 79 °F 90 °F (1986)
Min Temperature 69 °F 67 °F 64 °F (2015)
Cooling Degree Days 10    
Growing Degree Days 26 (Base 50)    
Moisture  
Dew Point 61 °F    
Average Humidity 63    
Maximum Humidity 78    
Minimum Humidity 46    
Precipitation  
Precipitation 0.00 in - - ()
Sea Level Pressure  
Sea Level Pressure 30.01 in    
Wind  
Wind Speed 5 mph (East)    
Max Wind Speed 12 mph    
Max Gust Speed -    
Visibility 10 miles    
Events      
Averages and records for this station are not official NWS values.
T = Trace of Precipitation, MM = Missing Value Source: NWS Daily Summary

Daily Weather History Graph

Daily Weather History Graph

Search for Another Location

Airport or City:

Trip Planner

Search our weather history database for the weather conditions in past years. The results will help you decide how hot, cold, wet, or windy it might be!

Date:

Astronomy

Mar. 13, 2012 Rise Set
Actual Time 6:33 AM HST 6:33 PM HST
Civil Twilight 6:11 AM HST 6:55 PM HST
Nautical Twilight 5:46 AM HST 7:20 PM HST
Astronomical Twilight 5:20 AM HST 7:46 PM HST
Moon No Moon Rise 10:48 AM HST (3/13)
Length of Visible Light 12h 43m
Length of Day
11h 59m
Waning Gibbous, 63% of the Moon is Illuminated
Mar 13
Waning Gibbous
Mar 14
Last Quarter
Mar 22
New
Mar 30
First Quarter
Apr 6
Full

Hourly Weather History & Observations

Time (HST) Temp. Heat Index Dew Point Humidity Pressure Visibility Wind Dir Wind Speed Gust Speed Precip Events Conditions
12:53 AM 70.0 °F - 63.0 °F 78% 30.01 in 10.0 mi Calm Calm - N/A   Clear
1:53 AM 70.0 °F - 61.0 °F 73% 30.01 in 10.0 mi East 3.5 mph - N/A   Overcast
2:53 AM 71.1 °F - 61.0 °F 70% 29.99 in 10.0 mi ESE 5.8 mph - N/A   Scattered Clouds
3:53 AM 70.0 °F - 60.1 °F 71% 29.99 in 10.0 mi NE 5.8 mph - N/A   Scattered Clouds
4:01 AM 69.8 °F - 60.8 °F 73% 29.98 in 10.0 mi ENE 5.8 mph - N/A   Mostly Cloudy
4:22 AM 69.8 °F - 60.8 °F 73% 29.98 in 10.0 mi ENE 5.8 mph - N/A   Mostly Cloudy
4:53 AM 70.0 °F - 61.0 °F 73% 29.99 in 10.0 mi North 4.6 mph - N/A   Mostly Cloudy
5:53 AM 69.1 °F - 62.1 °F 78% 30.00 in 10.0 mi NNE 4.6 mph - N/A   Mostly Cloudy
6:53 AM 71.1 °F - 63.0 °F 75% 30.02 in 10.0 mi Calm Calm - N/A   Overcast
7:53 AM 73.9 °F - 63.0 °F 68% 30.02 in 10.0 mi ESE 3.5 mph - N/A   Clear
8:53 AM 77.0 °F - 64.0 °F 64% 30.04 in 10.0 mi SE 4.6 mph - N/A   Scattered Clouds
9:53 AM 75.0 °F - 64.0 °F 69% 30.05 in 10.0 mi West 4.6 mph - N/A   Mostly Cloudy
10:53 AM 75.9 °F - 64.9 °F 69% 30.05 in 10.0 mi WSW 8.1 mph - N/A   Mostly Cloudy
11:53 AM 77.0 °F - 64.9 °F 66% 30.03 in 10.0 mi SW 6.9 mph - N/A   Overcast
12:53 PM 80.1 °F 81.9 °F 64.9 °F 60% 30.00 in 10.0 mi SSW 8.1 mph - N/A   Scattered Clouds
1:53 PM 82.0 °F 83.4 °F 64.0 °F 54% 29.98 in 10.0 mi SSW 11.5 mph - N/A   Clear
2:53 PM 82.0 °F 82.7 °F 61.0 °F 49% 29.96 in 10.0 mi SSW 10.4 mph - N/A   Clear
3:53 PM 80.1 °F 81.2 °F 62.1 °F 54% 29.96 in 10.0 mi SSE 11.5 mph - N/A   Mostly Cloudy
4:53 PM 79.0 °F - 61.0 °F 54% 29.96 in 10.0 mi South 9.2 mph - N/A   Partly Cloudy
5:53 PM 78.1 °F - 60.1 °F 54% 29.97 in 10.0 mi South 4.6 mph - N/A   Overcast
6:53 PM 77.0 °F - 60.1 °F 56% 29.99 in 10.0 mi Calm Calm - N/A   Clear
7:53 PM 75.0 °F - 57.0 °F 53% 30.01 in 10.0 mi NNE 9.2 mph - N/A   Clear
8:53 PM 73.9 °F - 59.0 °F 59% 30.03 in 10.0 mi East 6.9 mph - N/A   Clear
9:53 PM 72.0 °F - 57.9 °F 61% 30.04 in 10.0 mi NNE 5.8 mph - N/A   Clear
10:53 PM 73.9 °F - 52.0 °F 46% 30.04 in 10.0 mi NNW 4.6 mph - N/A   Clear
11:53 PM 72.0 °F - 51.1 °F 48% 30.04 in 10.0 mi NNE 10.4 mph - N/A   Clear